THOR ABLESTAR DEB, 132

Orbit data source: Space-Track

THOR ABLESTAR DEB, 132 is space debris in LEO originally from a launch on Thu, 29 Jun 1961 UTC launched from the Air Force Eastern Test Range (AFETR). Debris objects in space refer to the collection of defunct objects orbiting the Earth. Examples of debris include non-operational satellites, rocket bodies, and fragments generated from explosions, collisions, or faulty payload assembly.

Loading next visibility...
THOR ABLESTAR DEB details
Identifier
132, 1961-015S
Orbit
LEO
Last TLE update10 hours ago
Origin
Flag of USUSN BuWeps (US)
ManufacturerUnknown
MissionSpacecraft
Bus & MotorUnknown
MassUnknown
Launch date (UTC)
1961-06-29 (64 years ago)
Launch vehicleUnknown
Launch site
Air Force Eastern Test Range (AFETR)
Object type
Payload
Rocket body
Debris
Shape & HBRUnknown
Radar Cross SectionMedium (>0.1 m² and <1 m²)

Expand to show TLE details & history

TLE from 10 hours ago
0 THOR ABLESTAR DEB
1 00132U 61015S   25024.59801196  .00000203  00000-0  20576-3 0  9999
2 00132  66.6603 148.9574 0074081 178.4722 181.6598 13.94654660232744
Epoch: 2025-01-24T14:21Z
Definitive object data (Epoch: 2025-01-24T14:21:08.233Z)
Latitude-0.00005°
Longitude169.51419°
Altitude968.426 km
Speed7.341 km/s
True Right ascension09h 55m 49s
True Declination0° 00' 00"
Sunlit
Object was in full shadow at TLE epoch
Visualization TLE readout
Latitude-33.94527°
Longitude5.31486°
Altitude882.154 km
Speed7.432 km/s
Apparent Right ascension19h 21m 41s
Apparent Declination-67° 06' 47"
Sunlit
Object is in daylight
Visualization observer readout
Local Sidereal Time01:17:19
Azimuth208.662° SW
Elevation-35.836°
Doppler factor1
Orbital elements
Apogee altitude964.768 km
Perigee altitude856.774 km
Semi-major axis7,288.908 km
Eccentricity0.0074081
Inclination66.6603°
RAAN148.9574°
Arg. of periapsis178.4722°
True anomaly181.63544°
Mean anomaly181.6598°
Eccentric anomaly181.6476°
Mean motion3.48778 °/min
BSTAR0.00020576
Orbital period103.22 mins
Loading maneuver chart data...

THOR ABLESTAR DEB Visibility forecast

Observer location: undefined°, undefined

Span
Click to sort rows by Start time (UTC) header in descending order
Start Az.
Max El. time (UTC)
Max El. Az.
Max El.
End time (UTC)
End Az.
11 mins2025-01-25 09:23:34.458Z192.404° SSW2025-01-25 09:29:34.458Z102.337° ESE41.121°2025-01-25 09:34:34.458Z37.599° NE
8 mins2025-01-25 11:12:34.458Z270.814° WNW2025-01-25 11:15:34.458Z308.08° NW23.28°2025-01-25 11:20:34.458Z6.012° NNE
9 mins2025-01-25 18:27:34.458Z343.437° N2025-01-25 18:31:34.458Z52.943° ENE39.954°2025-01-25 18:36:34.458Z133.62° SE
6 mins2025-01-25 20:14:34.458Z288.7° WNW2025-01-25 20:17:34.458Z250.301° W19.576°2025-01-25 20:20:34.458Z214.476° SW
|